GFSNE_sfc_rhum_009.txt.gz
RH
93 94 96 95 94 95 95 93 96 94 80 86 91 77 77 79 76 78 82 77 91 94 94 95 89 87 88 85 64 61 68 72 75 74 71 67 63 63
93 93 84 89 84 89 86 90 94 95 92 90 83 75 61 45 51 73 70 76 79 89 87 91 92 92 88 86 82 63 64 69 71 76 76 65 57 54
78 76 75 74 80 83 85 82 79 84 89 78 80 69 57 60 54 63 64 69 91 79 80 83 91 96 90 89 85 74 64 68 69 69 70 71 69 64
72 74 72 52 72 76 79 72 75 72 80 81 85 72 61 56 59 62 51 46 64 68 82 84 88 92 95 86 78 76 72 63 59 66 67 64 61 65
71 72 72 73 75 73 72 77 78 70 76 78 72 74 70 65 60 67 61 68 48 58 75 79 85 88 90 86 82 76 73 70 69 66 65 66 66 65
71 74 73 74 73 76 72 90 88 95 95 87 79 78 72 67 75 72 73 73 70 51 61 76 79 77 81 85 84 81 76 74 74 76 79 81 80 74
72 69 69 69 64 61 63 82 82 92 87 90 91 77 70 74 70 80 76 79 74 81 81 75 74 81 70 74 78 81 83 80 77 76 76 78 80 81
78 72 73 72 70 64 68 70 71 88 93 89 85 94 91 78 79 81 82 85 80 81 90 88 75 72 71 70 76 79 82 81 80 76 78 81 87 90
88 84 75 59 69 73 73 72 72 74 77 85 90 88 83 81 81 86 88 87 88 82 92 94 90 81 75 60 69 74 73 75 74 74 73 75 78 87
79 79 81 78 81 73 90 86 88 77 76 80 88 85 85 84 85 79 82 86 89 94 93 99 93 92 82 79 71 72 77 73 72 74 74 74 74 76
75 76 73 74 76 84 94 92 85 79 65 65 66 69 80 90 87 94 98 92 91 78 95 93 92 97 97 95 86 71 75 74 75 78 76 78 79 79
86 77 77 74 79 74 87 93 95 78 77 82 85 83 79 77 70 80 94 97 96 98 89 90 83 89 94 97 98 96 98 82 80 79 79 81 79 92
89 86 85 81 77 80 82 95 94 89 90 93 89 91 86 83 80 80 85 88 92 92 86 87 94 92 96 97 98 97 96 96 95 85 76 82 82 87
95 90 93 69 76 82 84 90 88 94 96 96 96 94 95 94 86 89 89 89 87 81 79 87 97 95 98 99 98 97 97 97 98 91 95 84 85 86
96 82 73 71 75 79 76 86 92 94 96 96 95 94 95 94 92 95 92 93 95 94 86 87 96 94 97 98 98 98 96 96 98 97 99 99 98 99
94 96 92 85 87 89 86 84 92 94 95 95 95 94 95 97 97 97 97 97 97 95 93 96 96 92 95 93 89 92 98 95 98 98 99 96 98 98
94 98 97 91 90 90 90 89 88 89 92 94 94 94 94 95 96 97 97 98 98 98 98 99 98 97 90 86 97 88 82 94 97 97 99 100 98 97
94 99 100 99 97 94 95 96 94 92 91 92 94 94 94 95 95 95 96 96 97 98 98 90 90 98 98 99 95 95 92 97 97 94 97 98 99 97
98 99 100 100 100 94 94 96 98 96 93 94 94 95 95 94 96 95 97 98 98 99 99 99 97 96 97 89 96 94 97 98 98 98 96 98 92 96
98 99 100 100 99 96 95 96 96 96 98 95 95 96 96 96 96 96 96 99 98 98 94 97 98 98 98 98 99 98 89 94 95 97 98 98 98 91
97 98 99 100 99 98 100 98 99 98 98 99 98 96 96 96 95 96 96 97 96 92 94 97 96 93 98 98 97 98 98 89 96 98 99 100 100 91
98 97 97 99 99 99 100 100 98 98 97 96 98 99 98 98 96 96 98 100 98 98 97 96 93 97 98 97 98 100 99 100 96 88 86 84 96 98
97 97 98 100 100 100 98 100 100 99 98 97 97 97 99 99 96 97 98 97 96 95 95 92 91 95 98 98 98 100 97 99 97 100 97 82 81 84

GFSNE_sfc_rhum_012.txt.gz
RH
90 92 95 94 92 87 94 90 96 90 68 69 85 79 77 80 69 73 78 82 91 90 88 86 84 86 89 79 77 68 62 71 77 82 81 76 71 67
91 94 82 83 83 86 85 86 87 87 84 71 60 74 72 61 56 66 69 67 85 86 86 87 88 88 91 92 86 78 65 70 77 76 74 68 62 60
78 74 73 73 77 80 79 75 75 78 82 65 63 62 68 73 58 60 60 65 77 80 85 87 88 89 89 94 94 87 72 78 78 81 78 71 61 61
71 72 72 56 70 71 72 70 70 70 78 85 73 71 71 71 62 64 54 47 59 73 80 84 87 89 90 95 93 92 82 74 68 73 75 78 75 73
70 73 72 73 74 74 71 74 74 71 84 92 88 75 70 70 65 60 64 62 44 48 72 78 81 88 89 91 95 86 82 79 73 72 71 73 75 73
74 74 75 74 73 74 74 73 73 84 78 81 84 81 78 68 68 69 66 68 58 41 57 76 75 73 84 92 93 88 82 78 76 78 78 78 78 76
75 72 71 73 72 68 63 72 75 84 83 84 80 73 84 81 66 66 68 67 66 65 72 68 70 76 78 82 86 86 86 78 77 78 80 79 82 80
85 82 80 72 70 67 69 69 69 78 86 90 81 82 78 82 90 89 71 75 64 70 77 75 72 66 72 78 75 82 84 80 76 76 79 82 85 86
84 76 68 57 71 73 78 74 75 84 91 96 91 84 83 82 69 74 79 78 73 67 75 77 78 74 65 59 68 71 74 79 80 80 81 85 88 90
76 75 75 76 76 70 82 92 77 77 75 70 74 81 82 86 76 73 75 75 78 76 85 89 80 80 71 71 69 69 74 76 72 72 72 72 75 82
72 74 73 76 76 79 85 88 79 71 63 68 67 68 69 71 82 93 96 90 85 68 84 84 81 87 84 82 79 68 74 75 77 77 76 77 77 77
87 77 78 74 73 76 94 92 93 80 75 80 81 77 77 78 74 73 84 95 93 90 76 85 77 76 82 82 86 83 82 78 79 77 79 80 77 77
89 87 84 81 67 68 74 92 95 88 87 88 84 84 84 81 78 76 75 84 90 86 75 79 79 80 81 85 85 84 83 82 81 70 72 80 83 83
95 92 94 70 66 69 73 76 84 90 94 94 91 88 90 90 82 81 81 81 79 74 68 80 86 82 86 89 86 83 84 85 86 75 80 76 82 86
94 80 72 70 73 76 75 76 89 92 94 94 93 90 90 90 88 93 89 87 88 87 77 80 86 84 89 90 87 87 85 82 90 85 86 87 86 89
92 92 94 87 90 89 85 85 89 90 93 93 92 91 91 94 94 94 94 93 93 90 90 93 93 95 92 90 84 81 85 88 88 86 91 93 95 95
95 97 96 93 88 89 86 86 89 87 90 93 93 92 91 91 94 95 95 95 95 94 94 94 95 95 93 92 94 88 87 91 82 89 97 96 90 92
93 100 100 100 98 93 93 91 92 90 88 91 93 91 91 92 92 91 93 95 95 94 94 94 96 94 94 96 95 91 88 86 87 93 93 94 89 85
97 99 100 100 100 95 94 91 94 93 93 90 93 93 94 90 94 92 93 92 92 92 92 93 93 94 92 93 94 95 94 94 94 95 93 93 86 81
97 98 100 100 99 95 97 94 92 92 93 93 95 95 96 94 94 94 93 95 90 85 84 85 91 91 93 95 95 95 93 94 92 86 94 93 90 91
94 95 98 99 97 96 99 100 99 96 96 97 96 96 97 94 93 93 95 96 95 83 83 84 83 91 90 94 96 95 95 91 92 91 94 95 92 84
97 95 95 96 98 98 100 100 100 99 96 94 97 97 97 96 96 96 96 96 89 90 85 83 85 86 91 92 89 97 96 94 93 88 85 79 86 88
97 96 96 98 99 100 96 100 99 99 98 96 95 95 98 97 94 94 94 92 86 86 84 86 81 82 90 91 91 96 95 95 92 92 91 84 80 84

GFSNE_sfc_rhum_015.txt.gz
RH
61 62 59 55 62 58 57 61 68 74 53 41 40 36 36 37 42 45 52 61 67 90 87 86 83 83 86 90 81 73 63 66 76 78 81 82 80 74
53 59 59 55 56 58 56 58 58 66 65 40 36 36 36 30 40 42 46 60 65 79 84 84 84 84 85 88 91 87 74 67 75 75 83 83 79 72
56 61 57 52 48 48 48 45 44 45 55 44 36 38 46 48 43 40 46 49 53 75 82 83 86 88 88 88 91 91 85 76 79 83 78 79 76 69
53 53 51 45 52 48 49 49 47 47 49 50 44 52 50 52 51 50 46 34 44 57 73 80 84 87 90 90 94 93 93 84 82 85 86 81 74 71
51 55 55 54 54 52 51 51 52 47 50 62 54 45 48 48 53 54 68 52 39 45 62 73 74 77 85 90 90 92 88 92 78 79 85 88 87 85
57 58 60 60 57 53 57 67 57 66 59 58 58 51 47 43 56 55 57 47 44 32 40 61 67 70 70 85 89 91 90 85 82 76 78 81 84 84
58 54 55 61 68 62 55 60 62 65 64 61 56 52 54 48 63 74 64 48 44 44 41 39 43 47 57 69 85 92 91 83 82 82 79 77 80 80
50 48 46 52 52 64 66 68 67 68 73 68 74 55 48 49 50 72 77 74 57 42 46 40 42 42 46 48 73 92 94 86 82 80 78 78 82 83
49 47 46 44 57 52 58 63 74 76 75 79 79 59 54 49 55 59 60 62 58 46 50 45 41 44 41 37 65 84 93 85 84 84 83 85 84 86
48 50 51 52 53 61 72 66 55 50 52 58 69 66 56 53 53 61 63 58 52 47 50 64 42 60 44 45 63 71 87 83 86 87 85 85 87 87
54 52 55 54 64 74 69 69 56 49 57 61 68 76 79 72 67 67 85 81 77 47 40 52 49 62 62 62 59 60 77 80 79 75 74 75 77 81
59 54 64 67 73 66 69 72 74 65 58 58 57 55 58 58 70 64 57 78 81 68 43 57 52 51 61 61 65 63 64 75 75 76 74 76 72 47
59 55 60 73 65 64 66 72 80 72 75 68 58 53 52 54 57 58 56 58 65 62 55 63 57 54 55 62 61 64 64 65 63 56 78 78 80 68
72 62 70 66 66 68 64 71 74 77 80 79 77 71 71 70 62 64 67 65 56 54 46 59 67 60 65 66 60 58 65 67 68 52 58 61 77 84
73 66 68 69 66 59 66 72 75 74 81 82 81 75 77 75 76 81 81 73 66 66 58 57 65 58 60 67 63 65 66 64 79 71 71 68 63 65
72 64 76 73 72 71 63 63 69 71 80 83 82 80 82 87 89 90 88 87 85 77 73 75 77 79 80 70 69 76 71 72 68 69 78 76 77 85
78 73 68 68 64 59 62 64 64 63 72 81 82 81 80 79 84 88 90 90 91 89 90 90 94 96 86 86 85 71 77 75 71 77 90 77 68 68
68 74 80 82 76 65 68 68 66 64 68 77 82 80 81 82 80 78 83 90 90 90 89 89 91 93 93 96 88 86 86 80 77 82 82 84 70 65
73 72 83 84 79 64 62 63 67 68 74 78 82 84 85 80 81 79 79 78 79 77 79 82 87 90 83 91 89 94 87 80 85 89 83 82 79 76
72 73 78 78 74 64 62 63 65 70 70 75 84 86 88 86 84 80 77 81 74 66 65 62 72 78 85 94 96 97 93 98 93 92 88 86 83 90
73 71 75 76 73 70 78 80 84 79 80 81 84 85 89 82 82 80 82 82 76 62 63 64 69 84 78 89 97 94 97 90 91 93 87 83 79 74
80 76 72 73 78 78 83 86 82 80 75 72 79 87 88 83 83 83 83 82 72 70 63 64 69 74 79 79 76 93 86 92 88 85 82 85 81 77
87 82 83 83 84 86 78 81 78 81 78 75 75 79 86 83 77 80 80 76 70 68 69 71 69 68 76 76 81 83 88 90 82 79 88 88 84 81

GFSNE_sfc_rhum_021.txt.gz
RH
58 52 46 42 40 40 38 37 52 69 52 39 39 34 31 33 38 40 41 49 59 59 59 63 72 78 77 76 76 76 79 77 77 77 83 83 82 81
56 46 41 42 46 40 35 38 38 54 60 37 34 34 35 28 36 42 42 54 54 60 61 64 76 72 76 80 81 80 79 82 84 78 74 80 80 82
52 42 46 45 45 40 41 37 38 40 49 41 32 36 41 44 39 42 41 43 41 53 59 62 72 76 78 82 83 84 84 85 86 87 77 77 77 80
42 45 47 36 45 43 37 39 38 38 39 45 42 45 46 44 44 45 37 30 37 41 66 69 69 73 76 80 81 86 87 89 93 91 87 84 79 79
47 44 46 47 47 39 40 41 39 33 42 57 57 51 48 43 43 42 38 44 32 51 83 89 81 72 72 77 77 82 86 87 94 92 90 83 86 86
49 49 46 43 41 47 43 44 42 49 49 53 51 46 44 44 50 54 52 50 45 34 54 92 76 69 73 74 75 79 85 86 89 93 87 92 96 91
46 41 37 43 47 50 45 50 51 51 52 52 54 59 54 57 62 52 57 50 48 51 66 80 83 54 46 65 64 76 86 88 88 92 82 90 95 97
44 37 36 45 47 55 56 59 59 58 65 75 65 50 48 53 55 68 68 58 51 53 71 69 68 57 44 36 64 77 87 92 92 93 81 87 93 93
41 39 36 29 46 43 54 59 61 67 70 66 70 60 66 62 60 69 68 69 61 49 58 72 58 53 45 32 62 65 84 95 96 95 92 92 93 91
43 42 42 42 48 59 55 53 45 40 38 33 44 50 53 49 49 49 54 51 52 45 46 59 46 52 47 45 56 54 77 96 98 94 96 92 96 94
45 43 42 41 62 65 59 57 48 44 41 54 50 58 64 65 62 66 70 64 77 51 49 68 53 58 61 61 60 64 71 97 99 94 94 90 90 94
50 45 54 53 62 62 67 64 68 50 45 46 51 53 53 53 64 60 57 73 70 70 60 80 56 44 58 54 60 67 73 93 98 99 90 78 84 67
56 51 49 61 60 63 64 65 71 60 60 62 64 56 54 56 58 57 61 72 81 63 53 59 57 57 53 66 70 64 68 89 96 99 98 84 78 86
68 59 65 68 63 63 60 56 62 67 72 71 73 67 70 69 61 64 64 58 62 67 48 73 76 59 92 73 64 60 63 72 85 97 98 94 88 80
69 67 69 67 60 58 51 55 68 59 63 74 80 72 68 68 64 80 79 91 60 64 53 57 68 66 60 65 62 69 66 61 78 80 96 96 88 82
76 69 68 72 70 71 64 54 54 56 57 62 75 71 71 71 74 74 88 92 93 71 60 59 59 61 64 60 60 63 64 67 69 70 81 79 78 78
77 75 68 64 62 58 56 55 57 56 55 59 69 76 75 69 69 75 78 88 96 94 93 67 63 64 66 63 84 65 69 67 68 85 72 72 69 70
72 72 76 82 75 66 62 60 59 60 58 58 62 62 70 76 73 73 74 80 82 78 82 93 87 78 78 81 82 81 67 69 66 68 70 77 71 70
79 71 80 81 78 62 57 54 58 58 65 61 62 65 68 67 74 78 76 77 76 73 70 75 80 97 94 86 73 91 87 89 79 78 79 86 80 82
72 70 72 74 68 60 55 57 61 66 66 63 71 73 74 70 71 65 72 81 75 72 66 66 79 72 85 96 96 93 89 98 91 86 85 83 90 89
70 71 78 68 66 63 72 76 79 79 76 77 73 72 82 71 68 64 66 68 68 61 63 63 64 76 68 79 95 90 91 82 87 96 96 86 82 76
80 72 68 65 71 71 81 82 79 82 79 73 73 75 77 77 73 68 71 68 58 60 54 58 65 67 71 75 93 88 84 87 80 82 82 83 91 90
87 79 83 88 90 84 75 79 76 75 74 75 72 71 74 76 73 68 66 62 56 56 54 60 64 77 80 67 79 93 85 84 80 79 88 84 82 82

GFSNE_sfc_rhum_024.txt.gz
RH
80 75 77 71 67 68 70 64 74 77 64 54 57 50 53 51 52 49 52 52 58 60 62 63 59 54 54 59 67 73 73 73 70 74 69 72 76 84
76 78 80 70 65 72 68 66 60 68 69 52 49 53 52 39 45 50 49 50 56 58 60 60 63 62 59 65 72 74 75 76 76 76 78 68 71 78
76 79 79 66 71 68 70 63 61 60 62 52 46 52 54 58 52 52 50 48 48 56 59 60 65 66 75 74 72 73 74 80 81 83 83 82 74 78
64 65 64 47 65 65 65 62 62 55 56 58 57 59 61 57 56 57 45 38 44 47 59 63 76 83 87 82 79 79 79 85 84 88 89 86 82 78
65 67 64 63 68 66 67 62 59 49 63 67 62 60 60 57 56 56 55 60 47 50 50 68 79 86 93 84 79 80 79 84 84 87 92 92 87 85
65 64 62 60 61 62 54 63 56 69 65 65 64 62 62 58 64 73 68 63 63 45 52 66 75 85 90 83 79 79 82 81 84 84 90 93 94 95
63 56 54 53 50 55 51 66 72 76 71 68 69 71 70 65 66 70 83 78 72 64 85 86 78 88 98 84 72 74 78 83 84 85 90 90 92 96
63 57 53 54 62 62 62 61 66 79 77 82 82 78 71 73 79 78 81 79 80 73 74 80 77 77 85 80 75 78 80 82 86 90 92 89 93 93
63 60 52 37 69 67 64 61 63 63 64 72 74 74 89 75 69 69 69 73 74 65 66 68 68 67 58 42 67 70 77 84 90 94 95 92 94 94
63 62 61 60 78 69 73 71 65 59 54 46 62 61 62 64 68 67 72 72 71 65 64 73 68 77 69 71 68 65 74 88 93 97 95 95 96 95
61 61 59 58 68 62 73 74 68 62 50 53 53 56 64 69 69 74 87 89 90 75 72 80 83 86 87 86 85 64 78 90 97 98 96 94 97 95
74 66 64 65 59 61 83 85 85 73 66 60 66 67 64 66 68 88 97 94 93 91 76 94 86 96 90 95 95 95 96 90 90 98 98 95 98 98
86 84 84 65 68 65 61 83 84 70 70 77 72 71 74 71 71 72 78 94 97 94 74 72 90 86 94 92 99 95 96 99 98 99 100 98 96 97
88 89 90 69 68 66 66 64 60 75 88 91 82 81 81 81 75 74 75 88 98 90 73 79 96 94 94 92 98 98 93 99 99 99 100 98 96 100
92 85 74 72 74 75 68 64 75 88 92 91 85 81 81 78 74 80 78 78 78 95 65 75 92 85 95 93 90 93 97 94 99 99 100 100 100 99
85 87 88 84 84 82 87 83 89 91 88 92 92 85 84 84 83 81 84 85 89 95 84 81 78 82 94 93 94 94 94 94 99 96 99 99 99 98
91 92 93 91 91 90 90 86 87 86 90 91 92 89 82 78 81 82 83 84 89 88 96 96 78 80 90 84 94 96 94 94 99 99 93 95 96 95
92 95 95 94 94 93 92 92 90 86 90 90 93 91 93 84 79 77 83 88 89 84 85 84 99 94 94 91 87 96 97 96 94 90 91 96 95 96
96 95 93 93 94 93 92 91 89 90 86 91 92 94 95 92 84 82 83 87 86 81 83 83 93 92 95 98 98 87 98 99 99 95 96 96 97 99
92 91 90 91 93 92 91 90 92 93 93 93 93 93 95 96 93 85 82 88 84 77 79 76 89 89 96 97 98 99 88 98 99 96 96 98 99 90
88 92 87 87 89 92 93 93 92 94 93 94 96 94 93 95 93 93 87 85 83 71 72 73 79 84 86 94 98 99 96 82 91 98 99 99 99 98
87 85 85 91 92 93 95 94 95 95 95 96 95 93 94 94 95 94 93 91 82 84 77 69 71 84 96 97 97 98 98 98 87 86 84 87 98 98
89 86 87 86 89 93 93 94 95 94 93 93 93 93 94 94 92 94 94 91 81 85 76 74 75 76 94 86 92 98 97 98 97 98 99 86 87 91